Location: Shenandoah County Park
(38.9356°N, 78.4524°W)
Time: 05:52:26
(UTC-04:00)

Explorer 11/Cluster Stage 4 - Pass Details

Date: 29 February 2024
Orbit: 465 x 1220 km, 28.8° (Epoch: 12 April)

Event Time Altitude Azimuth Distance (km) Brightness Sun altitude
Rises 01:53:33 0° 257° (WSW) 4,116 - -53.2°
Reaches altitude 10° 01:56:39 10° 250° (WSW) 3,165 - -52.8°
Maximum altitude 02:03:56 39° 185° (S) 1,718 - -51.9°
Drops below altitude 10° 02:10:45 10° 120° (ESE) 2,958 - -51.0°
Sets 02:13:34 0° 113° (ESE) 3,821 - -50.6°
